User: anonymous
Location: Cluny
(50.9333°N, 112.8167°W)
Time: 03:28:05
(UTC-06:00)
Language:

Cosmos 1743 Rocket - Orbit

View from above orbital plane
View from above orbital plane
View from above satellite
View from above satellite

Ground track
Ground track

The orbit data is extracted from the following two-line orbital elements,

1 16720U 86034B   14257.72214269  .00000403  00000-0  46710-4 0  5455
2 16720 082.5517 099.6034 0020899 177.0605 237.7405 14.82787431530080
Epoch (UTC): 14 September 2014 17:19:53
Eccentricity: 0.0020899
inclination: 82.5517°
perigee height: 606 km
apogee height: 635 km
right ascension of ascending node: 99.6034°
argument of perigee: 177.0605°
revolutions per day: 14.82787431
mean anomaly at epoch: 237.7405°
orbit number at epoch: 53008

The dashed part of the orbit path shows where the satellite is in the earth's shadow,  

DLR